Hourly Weather Krachkivka

Today, 31 October, Saturday

Time Temperature Precipitation Wind Pressure Humidity
00:00 +8°C° 0.3 mm 4 mps 743 mmHg 86%
01:00 +8°C° 0.3 mm 4 mps 743 mmHg 86%
02:00 +8°C° 0 mm 4 mps 744 mmHg 85%
03:00 +7°C° 0.5 mm 4 mps 743 mmHg 86%
04:00 +7°C° 0.5 mm 4 mps 743 mmHg 86%
05:00 +7°C° 0.5 mm 4 mps 743 mmHg 87%
06:00 +7°C° 0.5 mm 4 mps 743 mmHg 87%
07:00 +7°C° 0.5 mm 4 mps 743 mmHg 87%
08:00 +7°C° 0 mm 5 mps 743 mmHg 87%
09:00 +7°C° 0.2 mm 5 mps 743 mmHg 86%
10:00 +7°C° 0.2 mm 4 mps 743 mmHg 85%
11:00 +7°C° 0.2 mm 4 mps 743 mmHg 85%
12:00 +7°C° 0.1 mm 4 mps 743 mmHg 83%
13:00 +7°C° 0.1 mm 5 mps 743 mmHg 82%
14:00 +7°C° 0 mm 5 mps 742 mmHg 84%
15:00 +7°C° 0.1 mm 5 mps 742 mmHg 84%
16:00 +7°C° 0.1 mm 5 mps 742 mmHg 84%
17:00 +7°C° 0.1 mm 5 mps 742 mmHg 84%
18:00 +7°C° 0.4 mm 6 mps 742 mmHg 85%
19:00 +7°C° 0.4 mm 6 mps 742 mmHg 87%
20:00 +7°C° 0.4 mm 6 mps 742 mmHg 89%
21:00 +7°C° 0.5 mm 6 mps 742 mmHg 89%
22:00 +7°C° 0.5 mm 6 mps 742 mmHg 90%
23:00 +7°C° 0.5 mm 6 mps 742 mmHg 90%

Tomorrow, 1 November, Sunday

Time Temperature Precipitation Wind Pressure Humidity
00:00 +7°C° 0.8 mm 6 mps 742 mmHg 91%
01:00 +7°C° 0.8 mm 6 mps 742 mmHg 91%
02:00 +7°C° 0.8 mm 5 mps 742 mmHg 91%
03:00 +7°C° 0.7 mm 6 mps 741 mmHg 91%
04:00 +7°C° 0.7 mm 6 mps 741 mmHg 91%
05:00 +7°C° 0.7 mm 6 mps 741 mmHg 91%
06:00 +7°C° 0.7 mm 6 mps 741 mmHg 91%
07:00 +7°C° 0.7 mm 6 mps 741 mmHg 91%
08:00 +7°C° 0.7 mm 6 mps 741 mmHg 91%
09:00 +7°C° 0.6 mm 6 mps 741 mmHg 90%
10:00 +7°C° 0.6 mm 6 mps 741 mmHg 90%
11:00 +7°C° 0.6 mm 5 mps 741 mmHg 90%
12:00 +7°C° 0.5 mm 5 mps 741 mmHg 90%
13:00 +7°C° 0.5 mm 6 mps 741 mmHg 90%
14:00 +7°C° 0.5 mm 6 mps 742 mmHg 90%
15:00 +7°C° 0.2 mm 6 mps 742 mmHg 90%
16:00 +7°C° 0.2 mm 5 mps 742 mmHg 90%
17:00 +7°C° 0.2 mm 5 mps 742 mmHg 90%
18:00 +7°C° 0.1 mm 5 mps 742 mmHg 90%
19:00 +7°C° 0.1 mm 5 mps 742 mmHg 90%
20:00 +7°C° 0.1 mm 5 mps 742 mmHg 90%
21:00 +7°C° 0.1 mm 5 mps 742 mmHg 89%
22:00 +6°C° 0.1 mm 5 mps 742 mmHg 89%
23:00 +6°C° 0.1 mm 5 mps 742 mmHg 89%

Day after tomorrow, 2 November, Monday

Time Temperature Precipitation Wind Pressure Humidity
00:00 +6°C° 0.1 mm 5 mps 742 mmHg 89%
01:00 +6°C° 0.1 mm 5 mps 742 mmHg 89%
02:00 +6°C° 0.1 mm 5 mps 742 mmHg 89%
03:00 +6°C° 0.1 mm 5 mps 742 mmHg 89%
04:00 +5°C° 0.1 mm 6 mps 742 mmHg 88%
05:00 +5°C° 0.1 mm 6 mps 742 mmHg 88%
06:00 +6°C° 0 mm 5 mps 743 mmHg 87%
07:00 +7°C° 0 mm 5 mps 743 mmHg 86%
08:00 +7°C° 0 mm 5 mps 744 mmHg 85%
09:00 +7°C° 0 mm 5 mps 744 mmHg 84%
10:00 +8°C° 0 mm 4 mps 744 mmHg 82%
11:00 +8°C° 0 mm 4 mps 744 mmHg 80%
12:00 +10°C° 0 mm 4 mps 744 mmHg 77%
13:00 +10°C° 0 mm 4 mps 744 mmHg 74%
14:00 +11°C° 0 mm 4 mps 744 mmHg 70%
15:00 +10°C° 0 mm 4 mps 744 mmHg 74%
16:00 +9°C° 0 mm 3 mps 745 mmHg 77%
17:00 +9°C° 0 mm 2 mps 745 mmHg 81%
18:00 +8°C° 0 mm 2 mps 745 mmHg 83%
19:00 +8°C° 0 mm 2 mps 745 mmHg 85%
20:00 +7°C° 0 mm 2 mps 746 mmHg 87%
21:00 +7°C° 0 mm 2 mps 746 mmHg 87%
22:00 +7°C° 0 mm 2 mps 746 mmHg 88%
23:00 +6°C° 0 mm 2 mps 746 mmHg 89%

3 November, Tuesday

Time Temperature Precipitation Wind Pressure Humidity
00:00 +6°C° 0 mm 2 mps 746 mmHg 89%
01:00 +6°C° 0 mm 2 mps 746 mmHg 89%
02:00 +7°C° 0 mm 1 mps 746 mmHg 89%
03:00 +6°C° 0 mm 1 mps 746 mmHg 89%
04:00 +6°C° 0 mm 1 mps 746 mmHg 89%
05:00 +6°C° 0 mm 1 mps 746 mmHg 90%
06:00 +6°C° 0 mm 1 mps 746 mmHg 89%
07:00 +7°C° 0 mm 1 mps 746 mmHg 88%
08:00 +6°C° 0 mm 0 mps 747 mmHg 88%
09:00 +7°C° 0 mm 0 mps 747 mmHg 83%
10:00 +10°C° 0 mm 1 mps 747 mmHg 78%
11:00 +11°C° 0 mm 1 mps 747 mmHg 72%
12:00 +11°C° 0 mm 1 mps 747 mmHg 71%
13:00 +12°C° 0 mm 1 mps 747 mmHg 69%
14:00 +12°C° 0 mm 1 mps 747 mmHg 68%
15:00 +12°C° 0 mm 1 mps 747 mmHg 71%
16:00 +11°C° 0 mm 1 mps 747 mmHg 74%
17:00 +10°C° 0 mm 1 mps 747 mmHg 77%
18:00 +10°C° 0 mm 1 mps 747 mmHg 78%
19:00 +9°C° 0 mm 1 mps 747 mmHg 80%
20:00 +8°C° 0 mm 1 mps 748 mmHg 81%
21:00 +8°C° 0 mm 1 mps 748 mmHg 83%
22:00 +8°C° 0 mm 1 mps 748 mmHg 86%
23:00 +7°C° 0 mm 1 mps 748 mmHg 88%

4 November, Wednesday

Time Temperature Precipitation Wind Pressure Humidity
00:00 +7°C° 0 mm 1 mps 748 mmHg 89%
01:00 +7°C° 0 mm 1 mps 749 mmHg 91%
02:00 +7°C° 0 mm 1 mps 749 mmHg 92%
03:00 +7°C° 0 mm 1 mps 749 mmHg 92%
04:00 +7°C° 0 mm 1 mps 749 mmHg 92%
05:00 +7°C° 0 mm 1 mps 749 mmHg 93%
06:00 +7°C° 0 mm 1 mps 750 mmHg 91%
07:00 +7°C° 0 mm 1 mps 750 mmHg 90%
08:00 +8°C° 0 mm 1 mps 750 mmHg 88%
09:00 +9°C° 0 mm 1 mps 751 mmHg 83%
10:00 +10°C° 0 mm 1 mps 751 mmHg 78%
11:00 +11°C° 0 mm 1 mps 751 mmHg 73%
12:00 +11°C° 0 mm 1 mps 751 mmHg 70%
13:00 +11°C° 0 mm 1 mps 751 mmHg 67%
14:00 +12°C° 0 mm 1 mps 751 mmHg 64%
15:00 +11°C° 0 mm 1 mps 752 mmHg 67%
16:00 +10°C° 0 mm 1 mps 752 mmHg 71%
17:00 +10°C° 0 mm 1 mps 752 mmHg 74%
18:00 +9°C° 0 mm 1 mps 752 mmHg 76%
19:00 +9°C° 0 mm 1 mps 753 mmHg 79%
20:00 +8°C° 0 mm 1 mps 753 mmHg 81%
21:00 +8°C° 0 mm 1 mps 753 mmHg 83%
22:00 +8°C° 0 mm 1 mps 753 mmHg 85%
23:00 +7°C° 0 mm 1 mps 754 mmHg 87%

5 November, Thursday

Time Temperature Precipitation Wind Pressure Humidity
00:00 +7°C° 0 mm 1 mps 754 mmHg 87%
01:00 +7°C° 0 mm 1 mps 754 mmHg 87%
02:00 +7°C° 0 mm 1 mps 754 mmHg 88%
03:00 +7°C° 0 mm 1 mps 754 mmHg 88%
04:00 +6°C° 0 mm 1 mps 754 mmHg 88%
05:00 +6°C° 0 mm 1 mps 754 mmHg 88%
06:00 +6°C° 0 mm 1 mps 754 mmHg 88%
07:00 +7°C° 0 mm 1 mps 754 mmHg 87%
08:00 +6°C° 0 mm 0 mps 754 mmHg 86%
09:00 +7°C° 0 mm 0 mps 754 mmHg 81%
10:00 +9°C° 0 mm 1 mps 754 mmHg 75%
11:00 +11°C° 0 mm 1 mps 754 mmHg 70%
12:00 +11°C° 0 mm 1 mps 753 mmHg 68%
13:00 +12°C° 0 mm 1 mps 753 mmHg 65%
14:00 +12°C° 0 mm 1 mps 753 mmHg 63%
15:00 +11°C° 0 mm 1 mps 753 mmHg 67%
16:00 +11°C° 0 mm 1 mps 752 mmHg 70%
17:00 +9°C° 0 mm 0 mps 752 mmHg 74%
18:00 +10°C° 0 mm 1 mps 752 mmHg 75%
19:00 +10°C° 0 mm 1 mps 752 mmHg 75%
20:00 +9°C° 0 mm 1 mps 752 mmHg 76%
21:00 +9°C° 0.2 mm 1 mps 752 mmHg 79%
22:00 +8°C° 0.2 mm 2 mps 752 mmHg 83%
23:00 +8°C° 0.2 mm 2 mps 752 mmHg 86%
Show more